Location: Hajnówka
(52.7352°N, 23.5693°E)
Time: 22:42:21
(UTC+01:00)

ISS - Visible Passes

Search period start: 23 January 2019 00:00
Search period end: 02 February 2019 00:00
Orbit: 404 x 410 km, 51.6° (Epoch: 24 January)

Date Brightness Start Highest point End Pass type
(mag) Time Alt. Az. Time Alt. Az. Time Alt. Az.
23 Jan -0.9 18:40:45 10° SSW 18:41:05 12° SSW 18:41:05 12° SSW visible
24 Jan -1.8 17:50:03 10° S 17:52:03 18° SSE 17:52:03 18° SSE visible
25 Jan -1.4 16:59:55 10° SSE 17:01:14 12° SE 17:02:34 10° ESE visible
25 Jan -1.9 18:34:00 10° SW 18:35:41 25° SSW 18:35:41 25° SSW visible
26 Jan -2.7 17:42:57 10° SW 17:45:52 30° SSE 17:46:30 27° SE visible
26 Jan -0.5 19:18:51 10° WSW 19:19:14 13° WSW 19:19:14 13° WSW visible
27 Jan -2.0 16:52:05 10° SSW 16:54:39 21° SSE 16:57:14 10° E visible
27 Jan -2.8 18:27:31 10° WSW 18:30:00 43° SW 18:30:00 43° SW visible
28 Jan -3.2 17:36:16 10° SW 17:39:26 46° SSE 17:40:43 29° ESE visible
28 Jan -0.9 19:12:32 10° W 19:13:26 17° W 19:13:26 17° W visible
29 Jan -2.7 16:45:05 10° SW 16:48:07 34° SSE 16:51:10 10° E visible
29 Jan -3.6 18:21:07 10° W 18:24:07 65° SW 18:24:07 65° SW visible
30 Jan -3.6 17:29:45 10° WSW 17:33:02 64° SSE 17:34:47 25° E visible
30 Jan -1.3 19:06:11 10° W 19:07:30 22° W 19:07:30 22° W visible
31 Jan -3.9 18:14:45 10° W 18:18:03 74° S 18:18:09 73° SSE visible
01 Feb -3.7 17:23:18 10° W 17:26:37 74° S 17:28:49 19° E visible
01 Feb -1.7 18:59:48 10° W 19:01:32 27° W 19:01:32 27° W visible
